Погода Красная Поляна

Погода Красная Поляна : погода сейчас, прогноз погоды и архив. Всё, что Вы хотите узнать о погоде Красная Поляна!

Поиск расширенной информации на нашем сайте:

Другие новости

Новости СМИ2

Главная страница сайта

Новости сайта

02.10.2013

Напоминаем, что на нашем новом сайте вы можете получить высокодетализированные прогнозы погоды по пунктам России, СНГ и мира (включающие важные для авиации метеовеличины, такие как направление и скорость ветра, видимость, явления погоды, количество и форма облачности, нижняя и верхняя граница облачности), а также ознакомиться с разнообразными материалами по авиационной метеорологии и подборкой полезных ссылок на эту тему.

Сайт Метеоцентр.Азия посвящён разработке технологий оптимизации авиаметеорологического обслуживания, включая проектирование и перспективное создание нескольких автоматизированных авиаметеорологических систем:
- система выпуска высокодетальных прогностических карт явлений погоды для нижнего воздушного пространства по России и ближнему зарубежью;
- система верификации прогнозов TAF (выпускаемых синоптиками официальных АМСГ РФ и ближнего зарубежья) и AUTOTAF (выпускаемых сайтом Метеоцентр.Азия) - выявление ошибок, онлайн-сопоставление с фактической погодой METAR, автоматическое внесение коррективов в прогнозы при резком отклонении фактической погоды от прогноза, подсчёт оправдываемости прогнозов по элементам и в целом;
- система обработки, анализа и отображения авиаметеорологической информации для применения провайдерами метеорологической информации.

Рекомендуем: работа вакансии бухгалтер смотреть здесь

Погода Красная Поляна - сегодня

Время (UTC), дата Ветер
(°,м/с) 
Видим.   Явления Облачность Т
(°С)
Тd
(°С)
f(%) Тe
(°С)
Pmin
(гПа)
dP
(гПа)
Po
(мм)
O2
(г/м3)
Тmin Tmax R s Состояние
почвы
03 20.04.17 040 (СВ) 20000 м    ясно 
+0.7 -0.9 89 +1  1021.8  -1.6  715  287  +0.6        влажная 
06 20.04.17 220 (ЮЗ) 20000 м    6/0 верхняя 
[Ci fib]
+8.8 +0.3 55 +10  1018.4  -1.2  714  278  +0.4         
09 20.04.17 220 (ЮЗ) 20000 м    8/0 верхняя 
[Ci fib]
+17.9 -2.9 24 +19  1014.6  -1.6  712  270           
12 20.04.17 220 (ЮЗ) 20000 м    3/0 верхняя 
[Ci fib]
+21.3 -8.2 13 +21  1012.6  -1.2  712  267           
15 20.04.17 270 (З) 20000 м    3/0 верхняя 
[Ci fib]
+17.3 -7.2 18 +18  1012.9  -0.6  711  270    +21.7       
18 20.04.17 020 (С) 20000 м    ясно 
+11.9 +1.2 48 +12  1014.2  0.1  711  274           
21 20.04.17 040 (СВ) 20000 м    4/0 средняя, верхняя 
[Ac cuf|Ci fib]
+10.9 +2.2 55 +12  1013.4  -0.9  710  275           
00 21.04.17 080 (В) 20000 м    10/0 средняя 
[Ac As]
+10.6 +2.7 58 +12  1011  -2.3  709  274           
03 21.04.17 010 (С) 20000 м  слаб. ливневой дождь  10/8 1000 м кучево-дожд., средняя 
[Cb cap|Ac As]
+14.6 +5.1 53 +15  1011.1  710  270  +9.6    0.0    влажная 
06 21.04.17 120 (ЮВ) 8000 м  слаб. дождь{ливн. осадки}  10/10 1500 м 
[Ns]
+10.7 +10.1 96 +14  1013.9  1.8  711  274           
09 21.04.17 030 (СВ) 5000 м  слаб. дождь  10/10 1500 м 
[Ns]
+10.6 +10.4 99 +15  1014  0.1  711  274           
12 21.04.17 260 (З) 11000 м  слаб. дождь  10/10 840 м 
[Ns]
+8 +7.6 97 +8  1014.8  0.1  711  277           
15 21.04.17 300 (СЗ) 3200 м  дождь  10/10 300 м 
[Ns]
+4.9 +3.6 91 +4  1018.2  2.4  713  281    +15.9  21     
18 21.04.17 тихо ()   8000 м  дождь  10/10 630 м 
[Ns]
+2.3 +1.9 97 +2  1019.2  0.3  713  285           
21 21.04.17 100 (В) 1400 м  дождь со снегом  10/10 420 м 
[Ns]
+0.4 +0.3 99 +1  1020.9  1.1  714  287           
00 22.04.17 270 (З) 5000 м  дождь  10/10 400 м 
[Ns]
+1.4 +1.4 100 +1  1019.3  -1.2  713  285           
03 22.04.17 290 (З) 4{10}  3600 м  дождь со снегом  10/10 330 м 
[Ns]
+2.4 +0.8 89 1019.9  0.8  714  285  +0.4    46  равномерный
мокрый или
старый снег
100% 
06 22.04.17 260 (З) 4{11}  7000 м  слаб. крупа{ливн. осадки, снег}  10/10 400 м кучево-дожд. 
[Cb cap]
+2.3 +0.4 87 1023.3  3.1  716  286           
09 22.04.17 290 (З) 5000 м  слаб. ливневой дождь{снег}  10/10 540 м кучево-дожд. 
[Cb calv]
+1.3 +1 98 +2  1027.3  3.5  719  288           
12 22.04.17 360 (С) 20000 м  {ливн. осадки}  10/10 400 м 
[Sc diur, vesp]
+4.8 +2.5 85 +6  1025.5  -0.8  718  284           
15 22.04.17 090 (В) 20000 м    10/6 1000 м средняя 
[Sc|Ac As]
+5.6 +2.1 78 +6  1022.5  -2.6  716  282    +6.1  12     
18 22.04.17 080 (В) 20000 м    10/10 1000 м 
[Sc diur, vesp]
+4.2 +2.1 86 +4  1019.6  -3.1  714  283           
21 22.04.17 010 (С) 20000 м    10/0 средняя 
[Ac As]
+4.6 +2.5 86 +4  1015.9  -3.3  711  281           
00 23.04.17 030 (СВ) 20000 м    10/10 1000 м 
[Sc]
+6.3 +3.6 83 +6  1011.7  -3.5  709  278           
03 23.04.17 030 (СВ) 20000 м    10/10 1000 м 
[Sc diur, vesp]
+6.9 +4.6 85 +8  1007.5  -3.8  706  276  +3.8        влажная 
Время (UTC), дата Ветер
(°,м/с) 
Видим.   Явления Облачность Т
(°С)
Тd
(°С)
f(%) Тe
(°С)
Pmin
(гПа)
dP
(гПа)
Po
(мм)
O2
(г/м3)
Тmin Tmax R s Состояние
почвы

Для получения пояснительной информации подведите курсор к названию столбца.

ПОГОДА Красная Поляна - архив

Всё, что Вы хотите узнать о погоде Красная Поляна - удобно и подробно!

Выберите нужную дату (начиная с 1 января 2015* года) и нажмите кнопку "Найти".
Будут отображены архивные сводки погоды по пункту Красная Поляна, начиная с указанной даты.


Отображать данные в формате CSV (для использования в таблицах Excel)


Внимание! Наш архив погоды предназначен исключительно для личного некоммерческого использования в познавательных целях. Если Вам необходимы официальные справки о состоянии погоды (для производственных, юридических, коммерческих и т.п. целей), обращайтесь в органы Росгидромета.

*Примечание: данная дата относится к архиву по метеостанциям СССР (Россия, СНГ, Балтия).
Архив по метеостанциям Зарубежной Европы и Азии (кроме Китая) хранится 10 дней, по другим регионам земного шара (Китай, Африка, Америка, Австралия, Океания) - 1 день.

Красная Поляна - район местоположения метеостанции


Название, широта, долгота, высота метеостанции:
Красная Поляна 43.7°ш. 40.2°д. 568 м над ур. моря [Российская Федерация]

Дополнительная информация

В oтличие oт бoльшинства пoгoдных сайтoв мы публикуем пoдрoбную метеoинфoрмацию в детальнoм прoфессиoнальнoм фoрмате.

Характеристики температуры и влажнoсти вoздуха измеряются на высoте 2 м в тени вдали oт зданий и деревьев.
Скoрoсть ветра измеряется на высoте 10 м (на урoвне рoста челoвека скoрoсть ветра ниже в 1.5-2 раза). Если метеoстанция нахoдится в гoрoде или в лесу, тo скoрoсть ветра занижена на 2-4 м/с пo сравнению с oткрытым местoм. Скoрoсть ветра над акватoриями крупных рек и oзёр, а также на вершинах хoлмoв на 2-5 м/с выше, чем в oбычных услoвиях.
Атмoсфернoе давление в разных тoчках местнoсти мoжет значительнo oтличаться oт давления на метеoстанции, в зависимoсти oт услoвий рельефа (при пoдъёме на 10 м давление пoнижается примернo на 1 мм рт.ст.).